TimeCEST,TemperatureF,Dew PointF,Humidity,Sea Level PressureIn,VisibilityMPH,Wind Direction,Wind SpeedMPH,Gust SpeedMPH,PrecipitationIn,Events,Conditions,WindDirDegrees,DateUTC
2:00 AM,60,49,58,29.81,,WSW,2.2,,,,,240,2013-04-27 00:00:00
4:45 AM,57.2,50.0,77,29.80,-9999.0,South,6.9,-,N/A,,Clear,180,2013-04-27 02:45:00
5:15 AM,57.2,50.0,77,29.80,-9999.0,South,8.1,-,N/A,,Clear,190,2013-04-27 03:15:00
5:45 AM,57.2,50.0,77,29.80,-9999.0,South,9.2,-,N/A,,Clear,180,2013-04-27 03:45:00
6:15 AM,57.2,50.0,77,29.80,-9999.0,South,8.1,-,N/A,,Clear,190,2013-04-27 04:15:00
6:45 AM,59.0,51.8,77,29.80,-9999.0,South,6.9,-,N/A,,Clear,190,2013-04-27 04:45:00
7:00 AM,-9999,-9999,N/A,-9999,-9999.0,SSW,10.4,-,N/A,,Clear,200,2013-04-27 05:00:00
7:15 AM,62.6,51.8,68,29.80,-9999.0,South,8.1,-,N/A,,Clear,190,2013-04-27 05:15:00
7:45 AM,66.2,51.8,60,29.80,-9999.0,South,9.2,-,N/A,,Clear,190,2013-04-27 05:45:00
8:00 AM,65,51,52,29.78,9,South,8.9,,,,Partly Cloudy,190,2013-04-27 06:00:00
8:45 AM,69.8,51.8,53,29.80,-9999.0,South,10.4,-,N/A,,Clear,180,2013-04-27 06:45:00
9:45 AM,73.4,50.0,44,29.80,-9999.0,SSW,12.7,-,N/A,,Clear,200,2013-04-27 07:45:00
10:00 AM,-9999,-9999,N/A,-9999,-9999.0,SSW,12.7,-,N/A,,Clear,200,2013-04-27 08:00:00
10:15 AM,73.4,50.0,44,29.80,-9999.0,SSW,15.0,-,N/A,,Clear,200,2013-04-27 08:15:00
10:45 AM,73.4,51.8,47,29.80,-9999.0,SSW,13.8,-,N/A,,Clear,200,2013-04-27 08:45:00
11:15 AM,75.2,51.8,44,29.80,-9999.0,South,15.0,-,N/A,,Clear,190,2013-04-27 09:15:00
11:45 AM,77.0,51.8,41,29.80,-9999.0,SSW,15.0,-,N/A,,Clear,200,2013-04-27 09:45:00
12:15 PM,77.0,53.6,44,29.80,-9999.0,South,13.8,-,N/A,,Clear,190,2013-04-27 10:15:00
12:45 PM,78.8,53.6,42,29.80,-9999.0,SSW,13.8,-,N/A,,Clear,210,2013-04-27 10:45:00
1:00 PM,-9999,-9999,N/A,-9999,-9999.0,South,13.8,-,N/A,,Clear,190,2013-04-27 11:00:00
1:15 PM,78.8,51.8,39,29.80,-9999.0,SSW,15.0,-,N/A,,Clear,200,2013-04-27 11:15:00
1:45 PM,78.8,51.8,39,29.77,-9999.0,SSW,12.7,-,N/A,,Clear,210,2013-04-27 11:45:00
2:00 PM,79,52,28,29.76,16,SSW,13.4,,,,Partly Cloudy,210,2013-04-27 12:00:00
2:15 PM,78.8,51.8,39,29.77,-9999.0,South,15.0,-,N/A,,Clear,190,2013-04-27 12:15:00
2:45 PM,78.8,53.6,42,29.77,-9999.0,SSW,13.8,-,N/A,,Clear,210,2013-04-27 12:45:00
3:15 PM,78.8,50.0,36,29.77,-9999.0,SSW,16.1,-,N/A,,Clear,210,2013-04-27 13:15:00
3:45 PM,80.6,50.0,34,29.77,-9999.0,SSW,15.0,-,N/A,,Clear,200,2013-04-27 13:45:00
4:15 PM,80.6,48.2,32,29.74,-9999.0,SSW,15.0,-,N/A,,Clear,200,2013-04-27 14:15:00
5:00 PM,-9999,-9999,N/A,-9999,-9999.0,North,-9999.0,-,N/A,,Unknown,0,2013-04-27 15:00:00
8:00 PM,71,50,37,29.73,,South,2.2,,,,,170,2013-04-27 18:00:00